Tracking 18647 objects as of 29-May-2017
HD Live streaming from Space Station
objects crossing your sky now

DSCS 2-15

Track DSCS 2-15 now!
DSCS 2-15 is classified as:


NORAD ID: 13636
Int'l Code: 1982-106A
Perigee: 37,304.1 km
Apogee: 37,319.2 km
Inclination: 16.2 °
Period: 1,514.3 minutes
Semi major axis: 43682 km
RCS: 4.13 m2 (large)
Launch date: October 30, 1982
Source: United States (US)
Launch site: AIR FORCE EASTERN TEST RANGE (AFETR)
Your satellite tracking list
Your tracking list is empty





NASA's NSSDC Master Catalog

Two Line Element Set (TLE):
1 13636U 82106A   17148.81887197 -.00000167 +00000-0 +00000-0 0  9991
2 13636 016.2067 352.8780 0001737 188.8517 347.2150 00.95090979072786
Source of the keplerian elements: AFSPC